Location: San Antonio
(29.4240°N, 98.4930°W)
Time: 16:32:08
(UTC-05:00)

BlueWalker 3 - Pass Details

Date: 21 June 2024
Orbit: 480 x 492 km, 53.2° (Epoch: 11 July)

Event Time Altitude Azimuth Distance (km) Brightness Sun altitude
Rises 21:43:27 0° 260° (W) 2,535 6.2 -13.1°
Reaches altitude 10° 21:46:18 10° 283° (WNW) 1,655 5.7 -13.6°
Maximum altitude 21:48:37 16° 322° (NW) 1,342 5.2 -14.0°
Drops below altitude 10° 21:50:57 10° 0° (N) 1,655 5.1 -14.4°
Sets 21:53:48 0° 24° (NNE) 2,535 5.7 -14.9°
